Location: Haliburton Scout Reserve
(45.0900°N, 78.3200°W)
Time: 10:14:50
(UTC-04:00)

S-56A Canister/Altair - Pass Details

Date: 29 January 2023
Orbit: 638 x 2493 km, 38.9° (Epoch: 25 March)

Event Time Altitude Azimuth Distance (km) Brightness Sun altitude
Rises 15:20:21 0° 264° (W) 3,505 11.7 15.7°
Reaches altitude 10° 15:22:35 10° 259° (W) 2,737 11.4 15.4°
Maximum altitude 15:29:02 55° 183° (S) 1,511 9.7 14.7°
Drops below altitude 10° 15:38:50 10° 110° (ESE) 4,073 11.0 13.4°
Sets 15:42:52 0° 107° (ESE) 5,354 11.5 12.9°
